YAOGAN-31 B

导读

YAOGAN-31 B(遥感三十一号B星)是中国研制发射的遥感系列卫星,于北京时间2018年4月10日发射入轨,是遥感三十一号组卫星的组成部分。作为中国遥感卫星体系的重要成员,该卫星主要用于开展空间环境探测与科学实验相关研究,服务于对地观测领域,进一步完善了中国遥感卫星网络布局,提升了空间探测能力。

Basic Information
目录编号:
43276
目录名称:
YAOGAN-31 B
国际标识:
2018-034B
轨道中心:
EARTH
卫星名称:
YAOGAN-31 B
卫星全名:
--
卫星状态:
在轨 (已飞行3030 天)
发射日期:
2018-04-10 UTC
国别 :
中国 (CN)
星等 :
--
Orbit Information
数据来源 国际轨道数据 AOE轨道数据
星历时间 2026-07-27T23:29:05+0800
7小时前
查看轨道信息
2026-07-22T09:00:00+0800
5天前
查看轨道信息
半长轴 7467.15km 7467.154km
偏心率 0.0278551 0.0278446
轨道倾角 63.396° 63.397°
近地点辐角 7.571° 7.543°
升交点赤经 347.183° 1.602°
平近点角 352.939° 211.376°
近地点 881.014km 881.097km
远地点 1297.012km 1296.937km
周期 107.027分钟 107.027分钟
每日圈数 13.45459 13.454581
Detailed Information
使用方式:
暂无
2D Orbit Map
3D Orbit Map
Orbit Altitude Analysis Chart
Orbit Inclination Analysis Chart
Orbit Comprehensive Analysis Chart
View Comprehensive Chart